{"data":{"norad_id":63854,"intl_designator":"2025-093U","name":"STARLINK-34015","alt_names":[],"object_type":"PAYLOAD","status":"ACTIVE","operator":null,"country":"US","launch_date":"2025-05-07","launch_site_code":"AFETR","launch_vehicle":null,"mission":null,"orbit_class":"UNKNOWN","rcs_meters":null,"size_class":null,"mass_kg":null,"dimensions":null,"purposes":["comms"],"wikipedia_slug":null,"has_3d_model":false,"image_url":null,"decayed_at":null,"tle_current":{"epoch":"2026-05-25T00:45:25.245216Z","epoch_age_seconds":72340,"freshness":"FRESH","line1":"1 63854U 25093U   26145.03154219  .00025181  00000+0  92107-3 0  9996","line2":"2 63854  43.0006   7.0920 0001888 261.5244  98.5394 15.27594121 59489","mean_motion":15.27594121,"eccentricity":0.0001888,"inclination_deg":43.0006,"raan_deg":7.092,"arg_perigee_deg":261.5244,"mean_anomaly_deg":98.5394,"bstar":0.00092107,"rev_number":5948,"period_min":94.265877316767,"perigee_km":481.71142905947,"apogee_km":484.30219696327,"semimajor_km":6861.1438130114,"source":"CELESTRAK","updated_at":"2026-05-25T13:38:20.149849Z"}}}